Radiation Dose measured at Intake/Vertical shaft monitor
Date,Time,Intake(cps),Vertical shaft(cps),Rain
2023/11/10,00:00,9.4,4.7,No
2023/11/10,00:10,9.1,4.8,No
2023/11/10,00:20,9.1,4.7,No
2023/11/10,00:30,9.4,4.7,No
2023/11/10,00:40,9.2,4.8,No
2023/11/10,00:50,9.1,4.7,No
2023/11/10,01:00,9.1,4.9,No
2023/11/10,01:10,9.2,4.8,No
2023/11/10,01:20,9.2,4.7,No
2023/11/10,01:30,9.2,4.8,No
2023/11/10,01:40,9.1,4.7,No
2023/11/10,01:50,9.3,4.8,No
2023/11/10,02:00,9.3,4.8,No
2023/11/10,02:10,9.1,4.8,No
2023/11/10,02:20,9.1,4.7,No
2023/11/10,02:30,9.2,4.7,No
2023/11/10,02:40,9.1,4.8,No
2023/11/10,02:50,9.2,4.9,No
2023/11/10,03:00,9.1,4.9,No
2023/11/10,03:10,9.3,4.8,No
2023/11/10,03:20,9.1,4.8,No
2023/11/10,03:30,9.2,4.7,No
2023/11/10,03:40,9.1,4.8,No
2023/11/10,03:50,9.1,4.7,No
2023/11/10,04:00,9.3,4.8,No
2023/11/10,04:10,9.4,4.8,No
2023/11/10,04:20,9.1,4.9,No
2023/11/10,04:30,9.2,4.7,No
2023/11/10,04:40,9.3,4.8,No
2023/11/10,04:50,9.2,4.8,No
2023/11/10,05:00,9.2,4.7,No
2023/11/10,05:10,9.2,4.6,No
2023/11/10,05:20,9.3,4.6,No
2023/11/10,05:30,9.3,4.7,No
2023/11/10,05:40,9.4,4.9,No
2023/11/10,05:50,9.4,4.6,No
2023/11/10,06:00,9.4,4.9,No
2023/11/10,06:10,9.1,4.9,No
2023/11/10,06:20,9.3,4.8,No
2023/11/10,06:30,9.3,4.8,No
2023/11/10,06:40,9.3,4.8,No
2023/11/10,06:50,9.3,4.9,No
2023/11/10,07:00,9.3,4.8,No
2023/11/10,07:10,9.4,4.6,No
2023/11/10,07:20,9.2,4.8,No
2023/11/10,07:30,9.3,4.8,No
2023/11/10,07:40,9.1,4.8,No
2023/11/10,07:50,9.3,4.8,No
2023/11/10,08:00,9.2,4.8,No
2023/11/10,08:10,9.5,4.8,No
2023/11/10,08:20,9.1,4.7,No
2023/11/10,08:30,9.2,4.8,No
2023/11/10,08:40,9.4,4.7,No
2023/11/10,08:50,9.4,4.8,No
2023/11/10,09:00,9.6,4.8,No
2023/11/10,09:10,9.3,4.7,No
2023/11/10,09:20,9.6,4.8,No
2023/11/10,09:30,9.4,4.8,No
2023/11/10,09:40,9.5,4.9,No
2023/11/10,09:50,9.3,4.9,No
2023/11/10,10:00,9.5,5.0,No
2023/11/10,10:10,9.4,5.0,No
2023/11/10,10:20,9.6,4.9,No
2023/11/10,10:30,9.6,4.9,No
2023/11/10,10:40,9.5,4.9,No
2023/11/10,10:50,9.3,4.7,No
2023/11/10,11:00,9.4,4.8,No
2023/11/10,11:10,9.2,4.8,No
2023/11/10,11:20,9.4,4.9,No
2023/11/10,11:30,9.7,4.9,No
2023/11/10,11:40,9.4,5.0,No
2023/11/10,11:50,9.3,4.8,Yes
2023/11/10,12:00,9.3,4.8,Yes
2023/11/10,12:10,9.4,4.9,No
2023/11/10,12:20,9.4,4.9,No
2023/11/10,12:30,9.4,4.9,No
2023/11/10,12:40,9.4,4.8,No
2023/11/10,12:50,9.6,4.7,No
2023/11/10,13:00,9.3,5.0,No
2023/11/10,13:10,9.5,4.9,No
2023/11/10,13:20,9.8,4.9,No
2023/11/10,13:30,9.4,4.8,No
2023/11/10,13:40,9.7,4.9,No
2023/11/10,13:50,9.8,4.8,No
2023/11/10,14:00,9.6,4.9,No
2023/11/10,14:10,9.9,4.8,No
2023/11/10,14:20,9.7,4.8,No
2023/11/10,14:30,9.5,4.7,No
2023/11/10,14:40,9.3,4.8,Yes
2023/11/10,14:50,9.1,4.8,Yes
2023/11/10,15:00,9.4,4.8,Yes
2023/11/10,15:10,9.5,4.9,Yes
2023/11/10,15:20,9.7,4.8,Yes
2023/11/10,15:30,9.5,4.7,No
2023/11/10,15:40,9.4,4.8,Yes
2023/11/10,15:50,9.3,4.9,Yes
2023/11/10,16:00,9.7,4.9,Yes
2023/11/10,16:10,9.4,4.7,Yes
2023/11/10,16:20,9.4,4.7,Yes
2023/11/10,16:30,9.4,4.9,Yes
2023/11/10,16:40,9.4,4.9,Yes
2023/11/10,16:50,9.8,4.9,Yes
2023/11/10,17:00,9.5,4.9,Yes
2023/11/10,17:10,9.7,4.9,Yes
2023/11/10,17:20,9.7,4.9,Yes
2023/11/10,17:30,9.5,4.9,Yes
2023/11/10,17:40,9.7,5.0,Yes
2023/11/10,17:50,9.8,5.1,Yes
2023/11/10,18:00,10.0,5.2,Yes
2023/11/10,18:10,10.0,5.1,Yes
2023/11/10,18:20,9.8,5.0,No
2023/11/10,18:30,9.9,5.1,No
2023/11/10,18:40,10.0,4.9,No
2023/11/10,18:50,9.8,5.0,No
2023/11/10,19:00,9.7,5.1,No
2023/11/10,19:10,9.8,5.1,Yes
2023/11/10,19:20,9.7,4.8,Yes
2023/11/10,19:30,9.7,4.9,Yes
2023/11/10,19:40,9.6,4.9,Yes
2023/11/10,19:50,9.6,5.0,No
2023/11/10,20:00,9.6,4.8,No
2023/11/10,20:10,9.5,4.7,No
2023/11/10,20:20,9.6,4.7,No
2023/11/10,20:30,9.5,4.8,No
2023/11/10,20:40,9.5,4.8,No
2023/11/10,20:50,9.5,4.8,No
2023/11/10,21:00,9.5,4.8,No
2023/11/10,21:10,9.5,4.7,No
2023/11/10,21:20,9.4,4.8,No
2023/11/10,21:30,9.4,4.8,No
2023/11/10,21:40,9.5,4.8,No
2023/11/10,21:50,9.7,4.8,No
2023/11/10,22:00,9.3,4.8,No
2023/11/10,22:10,9.5,4.9,No
2023/11/10,22:20,9.6,4.8,No
2023/11/10,22:30,9.4,4.8,No
2023/11/10,22:40,9.3,4.7,No
2023/11/10,22:50,9.6,4.7,No
2023/11/10,23:00,9.4,4.7,No
2023/11/10,23:10,9.4,4.8,No
2023/11/10,23:20,9.3,4.9,No
2023/11/10,23:30,9.3,4.8,No
2023/11/10,23:40,9.4,4.8,No
2023/11/10,23:50,9.2,4.8,No
